SCP
0 1 0 1 1 0 0 0 0 0 0 0 0 0 0 0 0 0 0 0 0 0 0 0 0 0 0 0 1 1 1 1 1 1 1 1 1 0 0 0 1 1 1
1 1 1 1 1 1 0 0 0 1 0 0 0 0 0 0 0 0 0 0 0 0 0 0 0 0 0 1 1 1 1 1 1 1 1 1 1 0 0 0 1 1 1
2 1 2 1 1 1 3 2 3 3 2 1 0 0 0 0 0 0 0 0 0 0 0 0 0 0 0 1 1 1 1 1 1 1 1 1 1 0 0 0 1 1 1
2 4 2 1 2 2 2 2 2 2 3 2 1 0 0 0 0 0 0 0 0 0 0 0 0 0 0 1 1 1 2 1 1 1 1 1 1 0 0 0 0 0 1
2 1 1 0 1 2 2 2 3 1 0 1 1 1 1 1 1 1 1 1 1 1 1 1 0 0 1 1 1 2 2 2 2 1 1 1 1 1 0 1 0 0 0
1 0 0 0 0 1 1 1 1 1 3 1 0 -0 0 1 2 3 2 0 2 2 2 2 2 1 0 1 1 2 2 2 2 1 1 1 1 1 0 0 0 0 0
1 0 0 0 0 2 2 1 0 0 0 0 0 -0 0 -0 0 0 1 0 1 2 2 3 3 2 1 1 1 1 2 2 2 2 1 1 1 1 1 0 0 0 0
0 0 1 1 2 2 0 0 0 0 0 0 0 -0 -0 0 -0 0 1 2 3 2 1 1 1 2 2 2 1 1 2 2 2 2 2 1 1 1 1 0 1 1 0
4 3 3 3 3 0 0 0 0 0 0 0 0 0 -0 0 0 -0 0 1 1 1 2 1 1 2 1 1 1 1 1 1 1 1 2 1 1 1 1 1 1 1 0
0 1 2 2 2 0 0 -0 -0 0 -0 -0 0 0 0 0 0 0 0 0 0 2 1 2 1 2 1 2 2 1 1 0 0 1 1 1 1 1 1 1 1 1 0
1 1 0 1 2 0 0 0 0 0 0 0 0 1 0 0 0 0 0 0 0 1 1 1 1 1 0 0 0 0 0 0 0 0 1 1 1 1 1 1 1 0 0
0 1 0 1 1 1 1 1 2 1 1 1 1 1 1 1 1 1 1 0 0 0 0 0 0 2 1 1 1 1 1 0 0 0 0 1 1 1 0 1 1 1 0
0 0 0 0 0 0 0 0 0 1 1 1 2 2 2 2 1 1 1 0 0 0 0 0 0 0 0 0 0 0 0 0 0 0 0 0 0 1 1 1 1 1 1
0 0 0 0 0 0 0 0 0 0 0 0 0 1 2 2 2 1 1 0 0 0 1 0 0 1 1 0 0 0 0 0 0 0 0 0 0 0 1 1 0 0 0
0 0 0 0 0 0 0 0 0 0 0 0 0 0 0 0 1 2 2 1 0 0 0 0 1 0 0 0 1 1 0 0 0 0 0 0 0 0 0 0 0 0 0
0 0 0 0 0 0 0 0 0 0 0 0 0 0 0 0 0 0 0 0 0 0 0 0 0 0 1 0 1 1 1 0 0 0 0 0 0 0 0 0 0 0 0
0 0 0 0 0 0 0 0 0 0 0 0 0 0 0 0 0 0 0 0 0 0 0 0 0 0 1 1 1 2 1 0 0 0 0 0 0 0 0 0 0 0 0
0 0 0 0 0 0 0 0 0 0 0 0 0 0 0 0 0 0 0 0 0 0 0 0 0 0 0 0 1 1 1 1 0 0 0 0 0 0 0 0 0 0 0
0 0 0 0 0 0 0 0 0 0 0 0 0 0 0 0 0 0 0 0 0 0 0 0 0 0 0 1 0 0 0 0 1 1 0 0 0 0 0 0 0 0 0
0 0 0 0 0 0 0 0 0 0 0 0 0 0 0 0 0 0 0 0 0 0 0 0 0 0 0 0 0 0 0 1 1 0 0 0 0 0 0 0 0 0 0
0 0 0 0 0 0 0 0 0 0 0 0 0 0 0 0 0 0 0 0 0 0 0 0 0 0 0 0 0 0 0 0 1 1 0 0 0 0 0 0 0 0 0
0 0 0 0 0 0 0 0 0 0 0 0 0 0 0 0 0 0 0 0 0 0 0 0 0 0 0 0 0 0 0 0 0 1 1 1 0 0 0 0 0 0 0
0 0 0 0 0 0 0 0 0 0 0 0 0 0 0 0 0 0 0 0 0 0 0 0 0 0 0 0 0 0 0 0 0 0 1 1 0 0 0 0 0 0 0
0 0 0 0 0 0 0 0 0 0 0 0 0 0 0 0 0 0 0 0 0 0 0 0 0 0 0 0 0 0 0 0 0 0 1 0 0 0 0 0 0 0 0
0 0 0 0 0 0 0 0 0 0 0 0 0 0 0 0 0 0 0 0 0 0 0 0 0 0 -0 0 0 0 0 0 0 0 0 0 0 0 0 0 0 0 0
0 0 0 0 0 0 0 0 0 0 0 0 0 0 0 0 0 0 0 0 0 0 0 0 0 0 -0 0 0 0 0 0 0 0 0 0 0 0 0 0 0 0 0
Wind_Speed_500mb
35 40 36 40 34 25 29 28 28 28 33 30 34 35 44 46 42 42 39 43 44 43 34 29 32 32 32 32 31 30 29 33 30 28 27 27 29 29 27 29 29 29 29
31 37 37 41 43 32 30 33 35 36 42 38 36 38 45 49 47 46 47 44 41 43 37 33 33 33 36 35 34 34 35 35 36 34 32 30 29 30 28 31 31 30 31
34 36 36 37 43 38 36 38 42 40 47 39 36 39 46 45 43 54 56 56 55 50 38 39 35 34 34 35 35 36 38 41 41 38 36 35 34 32 31 29 33 30 31
35 43 46 41 34 36 42 48 59 52 40 41 48 47 54 56 54 41 38 39 43 44 44 40 43 43 42 41 39 39 39 41 42 41 39 39 36 35 33 32 33 34 33
42 31 45 53 43 42 51 55 67 46 32 33 49 47 55 54 51 41 41 45 50 47 49 55 55 53 53 52 47 42 41 42 42 42 40 40 39 37 36 37 33 36 37
31 48 57 47 52 45 42 36 47 47 35 40 53 63 61 48 57 52 52 46 50 60 69 58 58 58 57 56 53 48 44 42 41 41 42 42 41 37 35 39 33 36 37
25 28 50 58 48 59 49 43 38 41 40 49 55 66 48 79 53 53 26 49 66 65 63 66 66 58 53 51 52 49 46 42 41 39 42 42 41 38 35 38 35 35 36
21 28 34 45 49 51 50 46 46 34 44 43 41 53 46 86 66 50 36 53 79 62 52 42 42 42 45 50 51 48 48 51 48 44 40 41 40 38 35 35 37 31 33
20 23 35 46 52 55 36 48 60 43 55 57 54 34 16 28 41 28 44 67 75 69 56 46 47 46 46 49 51 53 61 54 54 52 46 46 42 39 35 35 36 31 30
35 32 29 25 30 33 35 23 6 33 32 23 37 43 61 65 42 55 61 47 48 61 64 65 65 56 58 64 53 56 47 65 62 57 51 49 49 44 37 34 35 33 27
19 22 27 29 19 21 23 26 27 39 35 36 38 45 54 61 65 67 65 79 71 64 55 64 65 65 63 55 64 73 68 53 46 43 47 56 51 47 43 34 37 34 26
22 19 27 35 39 35 33 26 26 36 46 54 57 60 62 68 70 69 72 72 69 64 61 65 64 56 49 53 54 57 70 57 64 52 48 46 57 52 47 37 41 35 29
29 35 41 43 48 51 50 47 48 52 52 53 53 63 70 73 68 71 72 69 70 66 66 70 69 63 61 59 62 68 60 67 73 74 59 52 49 55 51 44 43 36 29
37 43 52 56 57 57 54 51 58 60 65 70 71 71 68 71 77 76 73 74 79 71 69 78 76 67 63 66 70 59 69 71 68 54 57 53 55 53 52 47 45 39 30
44 44 55 60 63 63 61 59 60 60 60 68 76 84 79 78 78 74 82 85 81 74 79 64 69 68 75 66 61 66 60 57 65 59 58 60 60 58 55 53 47 40 33
48 52 56 58 60 60 57 55 57 56 58 57 57 57 61 69 75 79 77 90 89 87 94 83 76 64 69 52 53 57 51 44 54 62 56 53 44 40 52 57 47 40 34
48 50 48 50 52 56 58 60 61 62 59 59 65 78 76 73 79 74 71 78 76 90 92 90 78 69 62 55 43 37 37 40 39 51 57 64 60 43 46 55 46 41 39
41 45 51 55 59 58 58 61 65 62 63 66 72 73 80 80 76 73 77 73 77 85 99 92 72 86 75 71 77 70 60 49 53 50 47 41 55 68 66 56 50 46 41
50 53 50 55 61 63 66 68 67 68 66 63 67 68 68 70 79 84 87 80 78 74 74 94 89 64 75 82 73 76 82 69 67 64 57 52 47 52 68 70 58 50 44
51 55 55 60 64 60 66 63 68 61 59 71 74 72 80 72 71 78 73 85 84 84 75 74 92 91 58 60 57 60 56 59 64 59 57 57 52 40 57 63 60 58 47
58 58 58 61 65 62 64 63 69 64 72 81 77 79 83 79 71 74 78 87 79 87 85 75 59 74 91 62 60 58 57 50 57 55 53 55 56 57 46 61 62 53 48
58 57 66 65 65 74 78 73 62 65 69 74 79 86 82 81 83 77 73 76 84 90 96 95 81 58 70 84 63 75 56 48 51 54 53 60 51 59 61 62 60 55 41
55 62 59 63 68 65 51 47 51 65 73 81 91 94 90 81 77 77 76 77 71 71 76 85 80 93 54 65 58 51 53 49 53 56 46 62 72 61 63 65 63 51 55
58 53 62 53 57 63 67 70 67 66 74 77 75 72 69 68 67 63 63 63 70 72 69 64 78 76 80 59 70 58 54 56 46 43 49 60 50 56 53 65 66 57 50
52 57 46 57 61 63 66 63 63 71 73 77 80 76 72 66 60 57 66 65 66 70 66 67 74 73 68 73 75 63 53 44 48 58 52 58 48 58 54 59 64 61 52
42 46 54 50 63 67 80 87 77 79 89 93 92 83 84 74 65 61 65 71 73 70 72 63 65 90 65 75 72 66 57 57 61 63 57 49 58 80 44 53 67 45 45
Wind_Direction_500mb
202 219 219 231 248 255 241 232 249 248 261 268 252 232 225 228 232 229 237 246 249 263 269 272 272 274 275 276 273 277 277 280 287 290 289 290 284 285 287 288 289 290 286
215 232 233 225 227 232 239 252 252 226 236 245 253 251 241 234 238 241 243 249 259 263 272 269 268 270 273 274 273 271 274 277 280 281 285 286 287 284 284 286 288 289 289
242 235 247 244 230 232 243 244 234 226 225 230 238 249 258 258 250 243 245 244 250 258 262 268 268 267 271 273 273 271 271 272 272 273 276 282 280 284 285 283 286 285 286
246 255 239 241 234 230 239 240 243 256 246 253 258 250 244 248 257 255 257 264 268 265 261 256 259 266 268 269 267 267 268 270 271 265 266 275 277 278 282 280 284 285 288
239 258 259 256 242 239 238 240 251 265 252 257 262 265 263 250 252 241 250 264 268 266 265 272 266 264 265 267 263 261 264 265 266 260 258 263 272 275 276 279 283 286 289
284 273 258 257 266 252 251 261 278 284 269 255 275 280 263 266 234 245 240 253 253 257 267 272 278 272 265 264 260 252 253 259 260 258 253 254 262 268 272 276 280 283 285
263 280 265 264 266 254 263 286 266 262 271 279 295 288 289 299 312 298 244 265 261 266 269 264 268 272 263 266 263 257 254 250 249 251 252 249 250 259 268 275 279 281 282
289 289 293 270 255 262 276 281 274 305 296 290 290 321 337 328 307 290 290 287 274 273 272 265 268 270 269 268 264 253 252 249 244 243 246 243 242 248 261 273 275 275 279
280 286 283 277 268 263 293 279 329 323 283 292 253 285 292 256 296 280 287 277 264 262 266 253 250 255 251 260 263 266 256 248 245 245 245 242 239 240 250 267 269 265 275
293 295 287 305 295 295 290 327 291 251 224 253 240 243 258 254 261 278 278 275 269 263 263 265 265 261 261 265 266 275 268 257 253 251 247 241 238 238 237 255 262 258 271
305 313 307 267 278 304 308 310 268 264 259 265 253 254 254 260 264 262 269 275 276 262 271 272 272 269 278 277 273 261 267 261 250 255 258 246 239 233 235 241 255 255 265
261 281 279 280 274 269 264 262 264 265 264 259 257 255 256 257 257 261 262 262 267 278 269 260 263 271 268 271 273 269 261 252 244 259 267 258 241 237 234 237 244 251 258
277 269 267 269 275 281 277 267 260 254 256 253 255 257 255 253 256 261 259 264 262 265 268 269 273 271 268 272 265 257 255 259 258 266 259 255 246 247 239 240 240 244 249
293 288 288 285 283 284 282 277 276 272 264 262 261 259 261 263 256 253 262 269 273 272 268 261 267 268 265 267 283 282 263 261 262 261 247 248 251 246 242 239 237 243 241
288 289 290 296 299 299 296 293 290 285 278 274 271 268 268 266 265 263 260 259 266 273 268 269 269 267 261 269 275 277 273 264 257 253 246 258 248 246 240 235 232 239 238
299 300 302 303 301 300 300 297 292 285 275 270 268 268 270 272 269 268 271 265 260 264 268 262 261 261 260 261 263 265 271 264 252 245 243 242 244 248 240 235 230 232 238
309 308 306 299 293 290 288 284 281 279 280 274 269 266 265 267 266 266 269 261 265 258 265 261 256 258 257 259 257 256 261 260 257 258 259 249 246 248 246 237 230 229 235
303 298 298 297 303 308 307 302 301 292 284 284 279 275 269 268 269 266 268 267 272 264 259 271 264 249 249 251 258 266 266 265 269 270 275 266 253 248 244 233 233 227 236
309 316 323 316 311 307 307 304 300 297 298 295 294 290 287 284 276 269 265 267 267 269 269 266 269 267 253 250 252 255 261 271 272 270 259 259 249 249 237 230 230 228 227
312 319 312 305 308 305 303 300 300 298 291 293 292 287 289 284 279 274 274 270 271 268 264 268 263 253 258 248 246 250 260 270 270 259 253 247 246 246 238 232 231 225 221
317 318 314 314 312 303 304 295 296 296 293 296 293 289 291 287 276 272 274 270 268 269 265 265 274 260 250 252 237 251 257 264 264 266 249 252 244 238 235 225 227 220 219
310 314 310 307 304 307 306 296 296 294 291 292 292 292 294 288 282 281 275 274 268 269 270 266 264 268 253 245 254 247 249 250 254 264 249 248 241 241 235 228 222 214 218
314 311 312 310 310 313 324 316 305 301 298 295 293 292 293 289 287 282 276 277 269 267 265 262 264 252 262 239 238 238 237 250 262 266 247 249 252 250 238 231 220 210 217
319 317 315 323 335 332 330 329 321 307 301 299 299 298 295 293 288 282 282 277 269 268 269 257 254 257 250 246 236 246 250 252 255 261 247 250 245 248 238 221 211 202 209
321 321 341 345 338 333 339 327 314 307 299 300 303 303 301 296 297 289 278 279 274 269 267 257 251 249 252 249 236 245 244 249 256 267 267 252 240 219 219 214 207 200 200
327 330 334 340 344 339 336 333 323 303 301 297 293 296 298 298 301 293 281 276 274 270 265 266 258 245 252 245 234 231 238 254 262 268 267 243 226 196 171 205 197 175 199
Wind_Speed_850mb
35 40 36 40 34 25 29 28 28 28 33 30 34 35 44 46 42 42 39 43 44 43 34 29 32 32 32 32 31 30 29 33 30 28 27 27 29 29 27 29 29 29 29
31 37 37 41 43 32 30 33 35 36 42 38 36 38 45 49 47 46 47 44 41 43 37 33 33 33 36 35 34 34 35 35 36 34 32 30 29 30 28 31 31 30 31
34 36 36 37 43 38 36 38 42 40 47 39 36 39 46 45 43 54 56 56 55 50 38 39 35 34 34 35 35 36 38 41 41 38 36 35 34 32 31 29 33 30 31
35 43 46 41 34 36 42 48 59 52 40 41 48 47 54 56 54 41 38 39 43 44 44 40 43 43 42 41 39 39 39 41 42 41 39 39 36 35 33 32 33 34 33
42 31 45 53 43 42 51 55 67 46 32 33 49 47 55 54 51 41 41 45 50 47 49 55 55 53 53 52 47 42 41 42 42 42 40 40 39 37 36 37 33 36 37
31 48 57 47 52 45 42 36 47 47 35 40 53 63 61 48 57 52 52 46 50 60 69 58 58 58 57 56 53 48 44 42 41 41 42 42 41 37 35 39 33 36 37
25 28 50 58 48 59 49 43 38 41 40 49 55 66 48 79 53 53 26 49 66 65 63 66 66 58 53 51 52 49 46 42 41 39 42 42 41 38 35 38 35 35 36
21 28 34 45 49 51 50 46 46 34 44 43 41 53 46 86 66 50 36 53 79 62 52 42 42 42 45 50 51 48 48 51 48 44 40 41 40 38 35 35 37 31 33
20 23 35 46 52 55 36 48 60 43 55 57 54 34 16 28 41 28 44 67 75 69 56 46 47 46 46 49 51 53 61 54 54 52 46 46 42 39 35 35 36 31 30
35 32 29 25 30 33 35 23 6 33 32 23 37 43 61 65 42 55 61 47 48 61 64 65 65 56 58 64 53 56 47 65 62 57 51 49 49 44 37 34 35 33 27
19 22 27 29 19 21 23 26 27 39 35 36 38 45 54 61 65 67 65 79 71 64 55 64 65 65 63 55 64 73 68 53 46 43 47 56 51 47 43 34 37 34 26
22 19 27 35 39 35 33 26 26 36 46 54 57 60 62 68 70 69 72 72 69 64 61 65 64 56 49 53 54 57 70 57 64 52 48 46 57 52 47 37 41 35 29
29 35 41 43 48 51 50 47 48 52 52 53 53 63 70 73 68 71 72 69 70 66 66 70 69 63 61 59 62 68 60 67 73 74 59 52 49 55 51 44 43 36 29
37 43 52 56 57 57 54 51 58 60 65 70 71 71 68 71 77 76 73 74 79 71 69 78 76 67 63 66 70 59 69 71 68 54 57 53 55 53 52 47 45 39 30
44 44 55 60 63 63 61 59 60 60 60 68 76 84 79 78 78 74 82 85 81 74 79 64 69 68 75 66 61 66 60 57 65 59 58 60 60 58 55 53 47 40 33
48 52 56 58 60 60 57 55 57 56 58 57 57 57 61 69 75 79 77 90 89 87 94 83 76 64 69 52 53 57 51 44 54 62 56 53 44 40 52 57 47 40 34
48 50 48 50 52 56 58 60 61 62 59 59 65 78 76 73 79 74 71 78 76 90 92 90 78 69 62 55 43 37 37 40 39 51 57 64 60 43 46 55 46 41 39
41 45 51 55 59 58 58 61 65 62 63 66 72 73 80 80 76 73 77 73 77 85 99 92 72 86 75 71 77 70 60 49 53 50 47 41 55 68 66 56 50 46 41
50 53 50 55 61 63 66 68 67 68 66 63 67 68 68 70 79 84 87 80 78 74 74 94 89 64 75 82 73 76 82 69 67 64 57 52 47 52 68 70 58 50 44
51 55 55 60 64 60 66 63 68 61 59 71 74 72 80 72 71 78 73 85 84 84 75 74 92 91 58 60 57 60 56 59 64 59 57 57 52 40 57 63 60 58 47
58 58 58 61 65 62 64 63 69 64 72 81 77 79 83 79 71 74 78 87 79 87 85 75 59 74 91 62 60 58 57 50 57 55 53 55 56 57 46 61 62 53 48
58 57 66 65 65 74 78 73 62 65 69 74 79 86 82 81 83 77 73 76 84 90 96 95 81 58 70 84 63 75 56 48 51 54 53 60 51 59 61 62 60 55 41
55 62 59 63 68 65 51 47 51 65 73 81 91 94 90 81 77 77 76 77 71 71 76 85 80 93 54 65 58 51 53 49 53 56 46 62 72 61 63 65 63 51 55
58 53 62 53 57 63 67 70 67 66 74 77 75 72 69 68 67 63 63 63 70 72 69 64 78 76 80 59 70 58 54 56 46 43 49 60 50 56 53 65 66 57 50
52 57 46 57 61 63 66 63 63 71 73 77 80 76 72 66 60 57 66 65 66 70 66 67 74 73 68 73 75 63 53 44 48 58 52 58 48 58 54 59 64 61 52
42 46 54 50 63 67 80 87 77 79 89 93 92 83 84 74 65 61 65 71 73 70 72 63 65 90 65 75 72 66 57 57 61 63 57 49 58 80 44 53 67 45 45
Wind_Direction_850mb
202 219 219 231 248 255 241 232 249 248 261 268 252 232 225 228 232 229 237 246 249 263 269 272 272 274 275 276 273 277 277 280 287 290 289 290 284 285 287 288 289 290 286
215 232 233 225 227 232 239 252 252 226 236 245 253 251 241 234 238 241 243 249 259 263 272 269 268 270 273 274 273 271 274 277 280 281 285 286 287 284 284 286 288 289 289
242 235 247 244 230 232 243 244 234 226 225 230 238 249 258 258 250 243 245 244 250 258 262 268 268 267 271 273 273 271 271 272 272 273 276 282 280 284 285 283 286 285 286
246 255 239 241 234 230 239 240 243 256 246 253 258 250 244 248 257 255 257 264 268 265 261 256 259 266 268 269 267 267 268 270 271 265 266 275 277 278 282 280 284 285 288
239 258 259 256 242 239 238 240 251 265 252 257 262 265 263 250 252 241 250 264 268 266 265 272 266 264 265 267 263 261 264 265 266 260 258 263 272 275 276 279 283 286 289
284 273 258 257 266 252 251 261 278 284 269 255 275 280 263 266 234 245 240 253 253 257 267 272 278 272 265 264 260 252 253 259 260 258 253 254 262 268 272 276 280 283 285
263 280 265 264 266 254 263 286 266 262 271 279 295 288 289 299 312 298 244 265 261 266 269 264 268 272 263 266 263 257 254 250 249 251 252 249 250 259 268 275 279 281 282
289 289 293 270 255 262 276 281 274 305 296 290 290 321 337 328 307 290 290 287 274 273 272 265 268 270 269 268 264 253 252 249 244 243 246 243 242 248 261 273 275 275 279
280 286 283 277 268 263 293 279 329 323 283 292 253 285 292 256 296 280 287 277 264 262 266 253 250 255 251 260 263 266 256 248 245 245 245 242 239 240 250 267 269 265 275
293 295 287 305 295 295 290 327 291 251 224 253 240 243 258 254 261 278 278 275 269 263 263 265 265 261 261 265 266 275 268 257 253 251 247 241 238 238 237 255 262 258 271
305 313 307 267 278 304 308 310 268 264 259 265 253 254 254 260 264 262 269 275 276 262 271 272 272 269 278 277 273 261 267 261 250 255 258 246 239 233 235 241 255 255 265
261 281 279 280 274 269 264 262 264 265 264 259 257 255 256 257 257 261 262 262 267 278 269 260 263 271 268 271 273 269 261 252 244 259 267 258 241 237 234 237 244 251 258
277 269 267 269 275 281 277 267 260 254 256 253 255 257 255 253 256 261 259 264 262 265 268 269 273 271 268 272 265 257 255 259 258 266 259 255 246 247 239 240 240 244 249
293 288 288 285 283 284 282 277 276 272 264 262 261 259 261 263 256 253 262 269 273 272 268 261 267 268 265 267 283 282 263 261 262 261 247 248 251 246 242 239 237 243 241
288 289 290 296 299 299 296 293 290 285 278 274 271 268 268 266 265 263 260 259 266 273 268 269 269 267 261 269 275 277 273 264 257 253 246 258 248 246 240 235 232 239 238
299 300 302 303 301 300 300 297 292 285 275 270 268 268 270 272 269 268 271 265 260 264 268 262 261 261 260 261 263 265 271 264 252 245 243 242 244 248 240 235 230 232 238
309 308 306 299 293 290 288 284 281 279 280 274 269 266 265 267 266 266 269 261 265 258 265 261 256 258 257 259 257 256 261 260 257 258 259 249 246 248 246 237 230 229 235
303 298 298 297 303 308 307 302 301 292 284 284 279 275 269 268 269 266 268 267 272 264 259 271 264 249 249 251 258 266 266 265 269 270 275 266 253 248 244 233 233 227 236
309 316 323 316 311 307 307 304 300 297 298 295 294 290 287 284 276 269 265 267 267 269 269 266 269 267 253 250 252 255 261 271 272 270 259 259 249 249 237 230 230 228 227
312 319 312 305 308 305 303 300 300 298 291 293 292 287 289 284 279 274 274 270 271 268 264 268 263 253 258 248 246 250 260 270 270 259 253 247 246 246 238 232 231 225 221
317 318 314 314 312 303 304 295 296 296 293 296 293 289 291 287 276 272 274 270 268 269 265 265 274 260 250 252 237 251 257 264 264 266 249 252 244 238 235 225 227 220 219
310 314 310 307 304 307 306 296 296 294 291 292 292 292 294 288 282 281 275 274 268 269 270 266 264 268 253 245 254 247 249 250 254 264 249 248 241 241 235 228 222 214 218
314 311 312 310 310 313 324 316 305 301 298 295 293 292 293 289 287 282 276 277 269 267 265 262 264 252 262 239 238 238 237 250 262 266 247 249 252 250 238 231 220 210 217
319 317 315 323 335 332 330 329 321 307 301 299 299 298 295 293 288 282 282 277 269 268 269 257 254 257 250 246 236 246 250 252 255 261 247 250 245 248 238 221 211 202 209
321 321 341 345 338 333 339 327 314 307 299 300 303 303 301 296 297 289 278 279 274 269 267 257 251 249 252 249 236 245 244 249 256 267 267 252 240 219 219 214 207 200 200
327 330 334 340 344 339 336 333 323 303 301 297 293 296 298 298 301 293 281 276 274 270 265 266 258 245 252 245 234 231 238 254 262 268 267 243 226 196 171 205 197 175 199